This is the latest recevied weather packets stored in our database for station/object KF4PPJ. If no packets are shown the sender has not sent any weather packets the latest 10 day(s).
| Time | Temp. | Humidity | Pressure | Rain* | Wind** | Luminosity | Snow |
|---|---|---|---|---|---|---|---|
| 1777954947 | 15° C | 78% | 1013.8 hPa | 0 mm | - | 0 W/m² | - |
| 1777954644 | 15° C | 77% | 1013.8 hPa | 0 mm | - | 0 W/m² | - |
| 1777954341 | 15.56° C | 75% | 1013.7 hPa | 0 mm | - | 0 W/m² | - |
| 1777954038 | 16.11° C | 74% | 1013.7 hPa | 0 mm | - | 0 W/m² | - |
| 1777953735 | 16.11° C | 74% | 1013.5 hPa | 0 mm | - | 0 W/m² | - |
| 1777953432 | 16.11° C | 75% | 1013.4 hPa | 0 mm | - | 0 W/m² | - |
| 1777953128 | 16.11° C | 74% | 1013.2 hPa | 0 mm | - | 0 W/m² | - |
| 1777952824 | 16.11° C | 74% | 1013 hPa | 0 mm | - | 0 W/m² | - |
| 1777952522 | 16.11° C | 74% | 1013.2 hPa | 0 mm | - | 0 W/m² | - |
| 1777952218 | 16.67° C | 73% | 1013.1 hPa | 0 mm | - | 0 W/m² | - |
| 1777951916 | 16.67° C | 72% | 1013.2 hPa | 0 mm | - | 0 W/m² | - |
| 1777951614 | 17.22° C | 71% | 1012.8 hPa | 0 mm | - | 0 W/m² | - |
| 1777951315 | 17.22° C | 71% | 1012.9 hPa | 0 mm | - | 2 W/m² | - |
| 1777951013 | 17.22° C | 70% | 1012.8 hPa | 0 mm | - | 4 W/m² | - |
| 1777950709 | 17.78° C | 70% | 1012.8 hPa | 0 mm | - | 6 W/m² | - |
| 1777950406 | 17.78° C | 70% | 1012.7 hPa | 0 mm | - | 10 W/m² | - |
| 1777950101 | 17.78° C | 70% | 1012.7 hPa | 0 mm | - | 11 W/m² | - |
| 1777949798 | 17.78° C | 70% | 1012.7 hPa | 0 mm | - | 14 W/m² | - |
| 1777949496 | 17.78° C | 69% | 1012.5 hPa | 0 mm | - | 16 W/m² | - |
| 1777949193 | 18.33° C | 68% | 1012.7 hPa | 0 mm | - | 20 W/m² | - |
| 1777948891 | 19.44° C | 66% | 1012.5 hPa | 0 mm | - | 22 W/m² | - |
| 1777948588 | 20° C | 64% | 1012.5 hPa | 0 mm | - | 25 W/m² | - |
| 1777948285 | 20° C | 62% | 1012.3 hPa | 0 mm | - | 28 W/m² | - |
| 1777947983 | 20.56° C | 61% | 1012.5 hPa | 0 mm | - | 40 W/m² | - |
| 1777947679 | 20.56° C | 61% | 1012.5 hPa | 0 mm | - | 40 W/m² | - |
* Rain latest hour (hover to see other rain measurements)
** Current wind speed in m/s (hover to see current wind gust speed)